{"data":{"norad_id":66565,"intl_designator":"2025-268J","name":"STARLINK-35893","alt_names":[],"object_type":"PAYLOAD","status":"ACTIVE","operator":null,"country":"US","launch_date":"2025-11-21","launch_site_code":"AFETR","launch_vehicle":null,"mission":null,"orbit_class":"UNKNOWN","rcs_meters":null,"size_class":null,"mass_kg":null,"dimensions":null,"purposes":["comms"],"wikipedia_slug":null,"has_3d_model":false,"image_url":null,"decayed_at":null,"tle_current":{"epoch":"2026-09-20T21:04:32.479680Z","epoch_age_seconds":56480,"freshness":"FRESH","line1":"1 66565U 25268J   26263.87815370  .00008725  00000+0  32608-3 0  9992","line2":"2 66565  43.0022 324.5397 0001501 283.0716  76.9968 15.27591227 47814","mean_motion":15.27591227,"eccentricity":0.0001501,"inclination_deg":43.0022,"raan_deg":324.5397,"arg_perigee_deg":283.0716,"mean_anomaly_deg":76.9968,"bstar":0.00032608,"rev_number":4781,"period_min":94.26605590214,"perigee_km":481.98561958162,"apogee_km":484.04533755569,"semimajor_km":6861.1524785687,"source":"CELESTRAK","updated_at":"2026-09-21T09:00:35.971131Z"}}}